This demonstration page uses our WeatherBlox Daily Observations layout. Learn more.

Left ArrowRight Arrow

Hourly Observations for June 30, 2021

Temp ( °F °C ) Dew Point ( °F °C ) Humidity (%) Winds ( mph kmh ) Pressure ( in mb ) Visibility ( mi km ) Precip ( " mm )
12:53 am 00:53 Clear 74 23.3 65 18.3 74 74 ESE 12 19 29.96 1015 10 16 0.00 0.00
1:53 am 01:53 Clear 73 22.8 65 18.3 76 76 SE 12 19 29.96 1015 10 16 0.00 0.00
2:53 am 02:53 Partly Cloudy 72 22.2 66 18.9 82 82 SE 7 11 29.97 1015 10 16 0.00 0.00
3:10 am 03:10 Mostly Cloudy 72 22.2 66 18.9 82 82 SE 7 11 29.97 1015 10 16 0.00 0.00
3:24 am 03:24 Cloudy 72 22.2 66 18.9 82 82 SE 8 13 29.97 1015 10 16 0.00 0.00
3:53 am 03:53 Mostly Clear 71 21.7 66 18.9 84 84 SE 9 15 29.96 1015 10 16 0.00 0.00
4:28 am 04:28 Mostly Cloudy 72 22.2 66 18.9 82 82 ESE 8 13 29.96 1014 10 16 0.00 0.00
4:38 am 04:38 Partly Cloudy 71 21.7 66 18.9 84 84 ESE 8 13 29.96 1015 10 16 0.00 0.00
4:53 am 04:53 Mostly Clear 71 21.7 66 18.9 84 84 ESE 7 11 29.96 1015 10 16 0.00 0.00
5:19 am 05:19 Mostly Cloudy 71 21.7 66 18.9 84 84 ESE 9 15 29.97 1015 10 16 0.00 0.00
5:44 am 05:44 Mostly Cloudy 71 21.7 66 18.9 84 84 SE 8 13 29.96 1015 10 16 0.00 0.00
5:53 am 05:53 Partly Cloudy 71 21.7 66 18.9 84 84 SE 9 15 29.96 1015 10 16 0.00 0.00
6:20 am 06:20 Mostly Cloudy 71 21.7 67 19.4 87 87 SE 8 13 29.97 1015 10 16 0.00 0.00
6:29 am 06:29 Mostly Cloudy 71 21.7 67 19.4 87 87 SE 9 15 29.97 1015 10 16 0.00 0.00
6:53 am 06:53 Partly Cloudy 71 21.7 66 18.9 84 84 SE 10 17 29.98 1015 10 16 0.00 0.00
7:53 am 07:53 Sunny 71 21.7 67 19.4 87 87 SE 7 11 29.99 1016 10 16 0.00 0.00
8:53 am 08:53 Mostly Cloudy 72 22.2 66 18.9 82 82 SE 12 19 30.01 1016 10 16 0.00 0.00
9:19 am 09:19 Cloudy 72 22.2 66 18.9 82 82 SE 10 17 30.01 1016 10 16 0.00 0.00
9:53 am 09:53 Cloudy 72 22.2 66 18.9 82 82 SE 9 15 30.03 1017 10 16 0.00 0.00
10:41 am 10:41 Cloudy 73 22.8 66 18.9 79 79 ESE 9 15 30.01 1016 10 16 0.00 0.00
10:53 am 10:53 Cloudy 73 22.8 66 18.9 79 79 ESE 13 20 30.03 1017 10 16 0.00 0.00
11:20 am 11:20 Cloudy with Light Rain 72 22.2 67 19.4 84 84 SE 13 20 30.02 1016 3 5 0.00 0.00
11:53 am 11:53 Cloudy 74 23.3 67 19.4 79 79 SE 9 15 30.03 1017 10 16 0.00 0.00
12:21 pm 12:21 Cloudy with Light Rain 75 23.9 67 19.4 76 76 SE 12 19 30.00 1016 7 11 0.00 0.00
12:53 pm 12:53 Cloudy with Light Rain 72 22.2 68 20 87 87 ESE 12 19 30.02 1017 4 6 0.00 0.00
1:23 pm 13:23 Mostly Cloudy with Light Rain 74 23.3 69 20.6 85 85 SSE 14 22 30.00 1016 2 3 0.03 0.76
1:37 pm 13:37 Cloudy with Light Rain 74 23.3 69 20.6 85 85 SSE 8 13 30.00 1016 4 6 0.13 3.30
1:53 pm 13:53 Mostly Cloudy 77 25 69 20.6 77 77 SSE 17 28 30.01 1016 10 16 0.13 3.30
2:53 pm 14:53 Mostly Cloudy 80 26.7 67 19.4 64 64 SSE 16 26 29.98 1015 10 16 0.00 0.00
3:53 pm 15:53 Cloudy with Light Rain 77 25 69 20.6 77 77 SW 10 17 29.97 1015 3 5 0.02 0.51
4:30 pm 16:30 Cloudy with Nearby Thunderstorms 73 22.8 69 20.6 87 87 S 13 20 29.96 1015 3 5 0.01 0.25
4:51 pm 16:51 Partly Cloudy 73 23 70 21 89 89 SE 6 9 29.94 1014 10 16 0.01 0.25
4:53 pm 16:53 Mostly Sunny 73 22.8 69 20.6 87 87 ESE 5 7 29.97 1015 10 16 0.01 0.25
5:53 pm 17:53 Sunny 77 25 68 20 74 74 E 3 6 29.94 1014 10 16 0.00 0.00
6:53 pm 18:53 Sunny 80 26.7 68 20 67 67 NE 3 6 29.92 1013 10 16 0.00 0.00
7:53 pm 19:53 Sunny 79 26.1 69 20.6 72 72 NNE 5 7 29.92 1013 10 16 0.00 0.00
8:53 pm 20:53 Sunny 78 25.6 69 20.6 74 74 NE 6 9 29.93 1014 10 16 0.00 0.00
9:53 pm 21:53 Clear 75 23.9 69 20.6 82 82 NNE 6 9 29.94 1014 10 16 0.00 0.00
10:53 pm 22:53 Partly Cloudy 74 23.3 69 20.6 85 85 ENE 6 9 29.96 1015 10 16 0.00 0.00
11:53 pm 23:53 Clear 73 22.8 68 20 84 84 E 5 7 29.96 1015 10 16 0.00 0.00

Powered by AerisWeather